Regional Weather Roundup
Issued by NWS

Home | Current Version | Previous Version | Graphics & Text | Print | Product List | Glossary On
Versions: 1 2 3 4 5 6 7 8 9 10 11 12 13 14 15 16 17 18 19 20 21 22 23 24 25 26 27 28 29 30 31 32 33 34 35 36 37 38 39 40 41 42 43 44 45 46 47 48 49 50
000
ASUS43 KFSD 271910
RWRSD

WEATHER ROUNDUP FOR SOUTH DAKOTA
NATIONAL WEATHER SERVICE SIOUX FALLS SD
100 PM CST FRI FEB 27 2015

NOTE: "FAIR" INDICATES FEW OR NO CLOUDS BELOW 12,000 FEET WITH NO
SIGNIFICANT WEATHER AND/OR OBSTRUCTIONS TO VISIBILITY.


SDZ001>005-009-010-012>017-272000-
NORTHWEST AND NORTH CENTRAL SOUTH DAKOTA

CITY           SKY/WX    TMP DP  RH WIND       PRES   REMARKS
BUFFALO          N/A     21   8  57 S17G24    30.01F WCI   7
FAITH            N/A     22  -2  35 S18G28    30.19F WCI   7
MOBRIDGE       SUNNY     17   3  54 S14       30.31F WCI   3
$$

SDZ012>016-024>037-041>051-057-063-072>074-272000-
SOUTHWEST AND SOUTH CENTRAL SOUTH DAKOTA

CITY           SKY/WX    TMP DP  RH WIND       PRES   REMARKS
RAPID CTY ARPT SUNNY     19   9  65 S23       30.11F WCI   2
PIERRE         SUNNY     22  -4  32 S12       30.34F WCI  10
CUSTER         CLOUDY    11   3  70 S10G22    29.93F WCI  -3
ELLSWORTH AFB  SUNNY     19   8  61 S29       30.08F WCI   0
PHILIP         SUNNY     25   1  35 SE13G23   30.25F WCI  14
PINE RIDGE     MOSUNNY   23  10  57 S21G28    30.15F WCI   8
WINNER         FAIR      21   1  41 S15       30.35F WCI   8
$$

SDZ004>011-016>023-039-040-272000-
NORTHEAST SOUTH DAKOTA

CITY           SKY/WX    TMP DP  RH WIND       PRES   REMARKS
ABERDEEN       SUNNY     12   0  58 S12       30.46F WCI  -2
WATERTOWN      SUNNY      9   0  67 SW8       30.43F WCI  -3
SISSETON         N/A     14  -1  51 W7        30.47F WCI   4
$$

SDZ017-020-022-023-036>040-048>070-272000-
SOUTHEAST SOUTH DAKOTA

CITY           SKY/WX    TMP DP  RH WIND       PRES   REMARKS
SIOUX FALLS    SUNNY     10  -2  58 W6        30.50F WCI   0
HURON          SUNNY     12   1  61 VRB6      30.47F WCI   3
CHAMBERLAIN    SUNNY     20  -2  38 S9        30.39F WCI   9
MITCHELL       SUNNY     18  -3  39 VRB5      30.48F WCI  11
YANKTON        SUNNY     16   0  48 W3        30.52F
$$

ABBREVIATIONS USED IN REMARKS
   TC - TEMPERATURE IN CELSIUS
  WCI - WIND CHILL INDEX
   HX - HEAT INDEX
  VSB - VISIBILITY




USA.gov is the U.S. government's official web portal to all federal, state and local government web resources and services.